Theta_e
302 302 303 303 303 303 304 304 304 304 304 299 297 297 294 290 293 302 308 310 303 291 281 286 284 285 287 293 292 293 292 291 292 290 291 291 292 289 288 288 288 288 288 289 287 288 284 287 287 289 293 293 294 296 297 296 298 296 291 293 291 307 280 280 280 283 286 291 292 292 293 294 291 290 292 290 287 288 283 279 281 280 281 281 277 277 282
302 302 303 303 303 304 304 304 304 304 304 300 298 292 290 292 293 298 306 306 300 290 283 282 279 283 289 290 290 293 292 291 290 290 291 290 289 289 289 288 290 287 290 288 287 290 281 291 290 288 292 291 296 296 296 297 294 294 293 291 293 286 284 282 278 278 279 281 286 285 288 292 287 288 289 292 292 289 285 284 282 281 281 279 280 276 284
302 302 303 303 303 304 304 304 304 304 305 304 299 292 293 291 295 296 297 299 297 288 286 283 278 282 285 286 286 288 290 293 293 291 290 293 291 289 286 288 289 289 290 289 291 293 288 285 292 290 292 292 296 298 298 300 298 301 304 305 297 286 285 282 275 272 272 271 271 274 278 284 287 289 290 292 291 288 286 284 280 279 281 281 280 280 289
302 302 303 303 303 304 304 304 304 304 304 304 299 294 292 289 284 287 288 291 291 290 291 288 284 280 284 279 284 289 286 291 293 293 291 292 292 290 289 290 291 289 288 287 288 288 293 290 290 290 290 291 295 296 302 302 302 307 308 303 297 287 287 284 278 274 272 277 279 283 287 285 282 288 289 290 290 289 285 281 277 279 279 281 286 290 291
302 302 303 303 303 304 304 304 304 304 304 303 299 295 292 290 284 282 285 287 286 286 286 289 287 285 285 281 287 284 286 288 290 294 287 293 291 291 290 289 286 285 287 285 285 287 288 290 290 290 290 293 294 297 297 299 304 306 303 304 291 287 284 287 286 287 287 286 285 287 290 287 288 286 288 290 288 288 288 283 283 284 281 279 288 295 292
302 302 303 303 303 304 304 304 304 304 303 304 298 292 290 284 287 288 289 286 282 281 282 288 287 289 289 284 289 285 285 285 282 290 293 293 292 286 287 288 288 286 287 285 281 283 284 286 283 290 289 291 292 293 296 295 301 302 297 299 291 284 282 288 287 287 290 290 289 289 290 288 288 288 287 288 290 287 285 287 289 283 279 281 291 295 293
302 302 303 303 303 304 304 305 304 304 302 303 296 290 290 288 288 290 293 285 284 283 289 289 286 286 289 287 289 285 285 284 287 288 289 289 288 288 279 284 287 286 287 284 281 282 280 281 285 287 287 288 289 289 291 296 297 297 296 296 293 287 284 288 289 288 289 290 289 290 288 287 287 287 287 288 290 289 290 290 289 289 287 291 294 290 287
302 302 302 303 303 304 304 304 305 304 301 301 294 292 288 288 287 287 288 286 285 286 284 285 283 283 289 285 288 289 286 285 288 289 288 282 285 290 284 286 286 287 286 284 281 285 285 285 281 288 288 287 290 287 290 290 294 298 294 296 294 289 284 291 288 284 286 290 291 290 288 287 286 286 286 286 288 290 290 290 290 292 291 292 291 288 286
301 302 302 303 303 304 304 305 305 303 301 295 293 293 293 292 290 291 287 285 286 287 282 284 281 277 281 282 286 291 289 287 291 288 292 288 287 289 286 287 286 287 287 285 285 287 287 287 287 288 289 285 293 288 289 295 290 294 291 291 292 289 284 288 284 284 283 287 288 290 289 287 285 284 284 284 283 285 286 286 291 290 288 290 290 287 285
301 302 302 303 303 304 304 305 305 303 302 293 291 292 293 292 293 291 283 280 286 283 283 281 279 280 280 283 285 288 289 289 292 282 289 293 295 293 291 288 287 284 285 285 287 289 288 289 292 290 292 293 292 292 292 292 291 290 290 292 286 288 285 284 284 284 281 289 288 287 286 285 282 281 283 284 284 285 287 288 290 292 293 289 289 288 290
301 302 302 303 303 304 304 305 305 304 301 294 289 292 293 293 292 290 283 282 280 281 280 280 280 286 286 287 286 288 287 286 288 284 283 291 290 292 292 289 285 282 284 288 292 292 291 291 293 290 290 291 291 293 295 296 296 294 291 288 289 289 288 285 287 283 282 285 285 286 282 276 277 287 289 287 285 286 286 284 286 287 289 287 288 286 289
301 302 302 302 303 303 304 305 305 305 303 299 295 292 294 293 290 283 277 280 280 280 280 280 282 284 284 285 287 285 284 285 285 289 286 287 290 292 290 289 286 281 288 293 291 290 292 293 291 291 294 293 294 294 294 293 293 294 293 290 287 285 285 284 285 284 281 283 284 281 275 277 288 292 291 291 291 289 287 287 288 288 288 288 287 287 286
301 301 302 302 303 303 304 305 305 305 305 298 295 295 295 296 293 284 280 280 278 280 277 282 285 286 286 285 285 285 286 286 287 288 288 288 288 288 290 289 287 288 292 290 290 290 287 287 287 290 291 290 291 293 292 292 291 293 293 293 289 285 285 283 283 282 283 282 280 275 276 286 290 292 291 292 290 288 287 287 287 289 289 288 286 287 287
301 301 302 302 303 303 304 305 305 305 305 301 293 293 294 295 291 285 280 278 280 280 282 279 282 283 284 284 284 284 285 286 286 286 286 288 286 286 288 290 291 292 291 291 289 288 282 283 283 282 284 283 283 284 288 289 291 290 290 290 292 290 285 285 283 283 279 279 279 280 285 286 287 285 286 285 283 285 284 281 284 289 289 289 287 287 288
301 301 302 302 303 303 304 304 305 305 305 304 295 293 294 294 291 289 285 282 280 282 280 278 281 283 284 283 284 282 282 282 283 283 286 288 286 288 289 291 292 291 290 289 285 284 282 280 280 279 279 276 274 278 283 284 288 289 289 289 289 289 285 285 283 281 282 280 279 280 280 278 282 287 289 291 289 288 288 284 283 289 290 291 288 287 288
301 301 301 302 303 303 304 304 305 305 305 304 295 293 295 296 293 291 285 280 279 276 280 284 285 284 283 283 284 283 280 278 280 280 282 283 285 288 290 291 292 291 290 287 284 282 280 280 276 273 274 276 281 278 277 282 282 287 287 289 290 289 287 285 284 281 279 277 277 277 276 278 284 286 289 290 290 289 288 281 280 285 289 289 289 287 288
301 301 301 302 302 303 304 304 305 305 305 304 295 293 297 298 295 289 283 282 281 280 280 285 286 283 278 278 281 280 282 280 281 279 278 281 284 286 288 291 291 290 288 281 282 281 282 279 278 277 280 282 278 276 281 280 277 279 285 286 286 285 283 283 283 279 278 276 275 275 278 278 285 287 289 290 291 292 284 274 277 285 288 289 289 289 289
300 300 301 301 302 303 304 304 305 305 304 305 296 293 295 298 295 291 286 281 278 280 283 286 284 280 281 281 280 284 283 280 281 280 279 282 283 284 285 287 287 290 289 281 279 278 277 276 278 275 276 284 283 279 274 280 276 278 280 279 279 278 280 282 278 277 278 280 279 280 280 284 286 287 289 290 291 289 279 273 278 286 287 288 288 290 291
300 300 301 301 302 303 303 304 304 304 305 304 298 292 294 297 298 292 287 283 281 281 282 286 289 286 287 287 285 285 286 285 282 278 279 278 282 286 286 287 289 283 286 279 280 278 276 277 279 277 276 279 281 277 279 275 276 280 279 277 278 277 276 278 279 278 276 275 276 277 279 284 286 288 288 290 289 282 278 283 289 288 288 288 290 291 292
300 300 300 301 302 302 303 304 304 304 305 305 298 291 294 296 298 295 289 283 278 281 284 288 288 287 288 287 283 282 282 283 279 279 279 277 284 286 283 281 285 285 282 281 279 280 276 276 278 279 276 277 280 281 276 278 282 280 280 280 275 278 274 275 275 276 275 274 274 273 273 282 289 286 287 288 284 282 288 288 288 290 289 290 291 293 293
300 300 300 301 301 302 303 304 304 304 305 305 301 291 292 294 297 296 292 286 281 280 281 287 288 288 288 287 288 287 285 284 284 282 283 281 284 280 275 276 282 281 279 279 277 278 279 276 277 277 280 279 281 279 277 273 278 283 283 281 281 283 276 276 275 280 273 273 273 275 282 285 289 286 282 285 286 289 289 288 286 288 290 291 292 292 292
300 300 300 301 301 303 303 304 304 304 305 305 302 291 290 295 297 299 297 290 283 283 286 288 290 289 289 289 289 288 290 289 292 289 287 283 284 283 282 283 284 284 285 282 280 279 281 279 280 276 276 278 280 275 276 270 272 279 281 280 275 284 280 278 276 281 275 277 280 285 286 287 288 288 287 288 290 291 290 289 289 289 289 289 289 289 290
299 299 300 300 301 302 303 303 304 304 304 305 299 293 292 294 297 297 291 290 287 287 288 287 286 289 293 293 292 290 289 290 291 288 284 282 282 281 283 283 282 287 287 284 282 280 280 278 277 279 277 278 276 276 279 276 274 278 276 284 282 287 286 284 283 281 286 286 287 289 287 287 288 289 290 289 290 291 291 290 289 289 289 290 288 288 289
299 299 299 300 301 302 302 303 304 304 304 304 302 292 290 291 295 294 292 288 284 286 285 286 284 282 283 289 292 291 291 292 293 293 290 287 280 279 280 283 286 284 281 285 283 283 279 277 281 279 276 279 278 274 272 275 274 280 277 279 280 283 283 281 280 283 280 277 286 286 286 287 289 289 290 291 291 291 291 290 290 290 291 291 292 291 291
299 299 299 300 300 301 302 303 303 303 303 304 301 297 294 291 293 294 289 287 285 280 280 280 280 289 290 291 291 291 292 293 295 292 290 289 286 282 283 288 290 286 286 286 282 282 279 277 278 276 275 280 280 275 277 276 277 279 274 278 279 282 286 283 280 279 277 280 284 286 286 287 288 289 289 289 290 291 291 292 293 293 294 293 293 293 292
299 299 299 299 300 301 302 302 303 303 303 303 302 292 291 292 294 292 292 291 285 281 280 279 285 291 290 291 291 292 293 293 293 293 292 292 290 289 289 288 286 286 286 284 283 280 276 276 276 275 277 278 280 276 277 280 280 279 278 279 282 281 284 277 280 278 280 282 283 284 284 285 286 289 290 291 290 290 291 291 292 292 291 291 292 292 292
298 298 299 299 300 301 301 302 303 303 303 303 300 292 292 292 292 294 292 290 284 281 280 280 282 288 291 289 292 292 294 292 293 292 292 291 289 288 287 285 284 283 283 282 280 279 278 277 276 278 278 280 280 280 280 281 278 275 276 281 282 281 280 281 281 278 275 276 280 281 277 277 283 287 288 290 292 292 291 291 291 291 290 290 289 289 289
298 298 299 299 300 301 301 302 302 303 303 303 298 292 292 291 293 293 292 290 288 282 281 279 282 287 289 291 292 289 292 294 292 292 290 290 289 288 287 285 283 285 281 279 281 280 276 276 280 276 275 279 278 279 278 279 278 277 280 282 281 280 281 278 274 276 275 281 283 283 281 282 283 284 287 288 290 291 290 290 289 290 290 290 289 288 287
298 299 299 300 300 301 301 302 302 302 303 301 291 293 292 292 293 295 297 295 289 284 280 282 282 284 281 286 291 289 290 293 292 290 289 289 289 287 286 286 283 281 280 279 278 277 277 278 276 278 279 280 278 277 276 275 271 274 279 282 282 284 283 283 282 281 282 285 285 285 284 283 284 285 286 286 287 288 288 289 289 289 288 288 288 288 286
298 299 299 300 300 301 301 302 302 302 302 291 290 284 284 291 290 295 298 298 291 285 282 280 279 281 285 288 290 288 290 292 290 291 289 289 288 287 287 286 285 285 282 280 280 277 279 279 276 278 282 283 278 273 271 274 272 278 280 281 284 284 285 284 284 284 283 287 289 290 288 287 287 286 286 286 288 287 286 286 286 286 286 287 286 285 286
298 299 300 300 301 301 302 302 302 303 300 287 286 283 281 283 291 295 300 296 293 288 282 280 281 281 283 289 289 289 288 292 289 288 288 287 287 287 288 285 284 285 281 280 279 279 277 277 276 279 280 284 277 272 275 273 272 277 281 281 283 285 285 284 285 287 288 288 289 290 289 288 287 286 286 285 286 286 286 286 288 289 286 286 285 285 284
298 299 300 300 301 301 302 303 303 302 292 289 287 287 284 288 291 294 300 299 295 291 283 280 280 281 279 282 287 290 291 290 290 286 284 287 287 286 286 287 285 284 286 279 279 279 279 277 276 279 280 283 279 270 274 274 273 276 281 282 283 284 284 286 286 286 288 289 288 286 286 287 289 288 286 288 287 287 287 285 284 285 288 285 283 284 284
299 300 300 301 301 302 302 303 303 301 291 294 299 300 299 300 301 301 301 294 292 286 282 279 278 279 280 282 287 290 291 286 285 282 285 286 288 283 283 284 282 283 291 283 280 279 280 276 275 278 281 279 274 273 273 271 277 280 281 283 283 283 284 285 286 286 286 286 287 283 282 284 286 287 287 287 287 287 286 284 282 284 285 284 284 283 283
299 300 300 301 301 302 302 303 303 302 298 291 292 294 296 302 297 301 293 290 288 286 280 280 277 278 279 281 284 286 289 284 284 280 281 287 284 281 281 282 283 281 283 281 279 279 280 279 278 275 277 277 273 273 273 277 280 281 281 281 282 281 282 283 284 285 285 286 287 288 288 288 286 285 285 285 284 284 284 283 283 284 283 284 283 283 283
300 300 300 301 302 302 303 302 290 292 290 291 291 289 291 302 299 302 297 291 286 283 279 281 278 275 279 277 276 281 286 283 282 281 280 284 285 285 282 280 278 280 282 281 277 276 276 279 279 276 276 274 272 272 271 278 281 281 281 282 282 281 282 283 283 282 283 284 286 286 286 286 285 284 286 286 285 283 283 282 282 284 282 282 283 281 281
300 301 301 302 303 302 292 296 290 290 288 290 292 300 304 304 306 293 293 294 289 280 276 279 277 276 275 273 275 282 288 282 282 280 283 279 281 284 280 278 277 280 281 277 277 275 277 281 278 274 271 273 273 274 277 278 280 282 281 282 282 282 282 283 283 283 284 284 285 284 285 285 286 285 284 283 282 281 282 282 281 282 283 282 281 281 282
300 301 302 301 294 292 286 286 291 293 291 291 295 303 304 302 296 294 292 292 294 290 283 276 278 279 277 277 277 280 282 279 280 278 280 279 278 278 277 276 277 280 275 275 275 276 279 282 275 272 271 271 275 279 280 280 282 283 284 283 284 284 282 282 284 284 284 284 285 283 281 281 283 282 283 283 283 281 281 281 281 282 282 282 281 281 282
301 302 292 289 288 283 286 284 290 293 300 301 301 293 290 289 286 283 284 283 287 291 281 280 277 282 279 278 278 284 281 277 280 280 279 279 279 279 277 278 278 279 272 275 278 282 275 274 272 273 275 278 278 280 281 282 284 284 283 283 283 283 283 283 284 284 282 282 282 283 283 282 282 281 282 282 281 281 281 282 281 281 283 284 283 283 282
299 290 287 285 284 283 284 290 294 301 295 295 289 286 284 282 281 281 281 281 281 281 279 279 281 279 279 279 280 283 284 279 274 275 276 281 277 277 278 274 278 274 272 273 277 277 275 274 269 267 273 275 277 282 281 282 282 282 282 282 283 283 284 284 284 284 283 282 283 285 286 283 283 283 282 282 281 281 280 280 281 281 283 283 283 282 283
289 289 285 283 284 286 290 293 300 296 291 288 283 281 280 280 281 278 279 280 279 279 277 279 281 281 280 280 281 280 284 281 276 277 276 278 281 276 278 275 278 273 269 269 275 277 270 269 269 267 272 274 279 281 281 282 283 282 282 283 283 283 283 285 286 285 283 283 284 286 285 284 284 284 283 282 282 282 282 281 281 282 283 283 283 283 282
287 286 284 284 288 288 289 291 290 285 283 279 278 278 278 279 280 279 278 275 277 280 280 280 279 281 282 280 279 278 284 284 281 279 276 276 281 279 274 274 277 271 269 271 276 275 269 268 266 266 270 274 278 281 280 283 284 284 283 283 283 282 282 283 284 285 284 284 284 284 284 284 284 284 284 284 284 283 282 281 282 283 282 282 282 283 284
288 288 289 290 291 290 289 286 282 282 280 280 277 275 276 277 279 279 277 276 277 276 283 279 280 279 282 283 283 282 283 284 280 277 277 277 281 275 275 275 274 268 268 273 275 271 269 268 267 270 273 276 277 278 280 283 284 284 283 283 283 283 283 282 283 284 285 286 286 286 285 285 284 284 284 284 283 283 282 281 282 281 283 284 284 283 282
298 297 294 290 285 284 282 281 282 278 274 274 271 273 275 275 276 276 277 277 277 279 281 285 283 283 285 284 284 284 282 286 283 280 276 276 279 276 273 271 272 270 275 276 272 265 266 266 268 271 276 277 279 281 281 283 283 283 284 283 282 282 283 283 283 284 284 284 285 286 286 286 286 285 285 285 284 283 281 281 283 283 283 282 283 282 282
293 292 287 281 283 283 282 277 282 280 276 274 272 271 273 273 275 275 274 278 278 280 281 282 282 280 280 283 282 282 281 284 283 278 278 278 277 274 271 271 272 274 274 270 267 268 268 267 269 276 278 278 283 282 281 281 281 282 284 283 281 282 283 283 283 284 285 284 285 285 285 285 285 285 285 285 285 285 284 282 282 282 282 282 282 282 281
284 282 278 277 276 279 279 272 276 275 272 273 276 273 272 271 273 270 275 278 280 283 281 280 281 282 282 283 281 281 281 280 280 278 276 276 273 274 271 271 272 270 270 269 265 265 270 273 276 277 279 281 280 281 281 281 281 283 284 283 282 282 283 284 284 283 284 284 285 284 284 285 286 286 286 285 284 284 284 284 283 282 281 282 282 282 282
282 278 274 274 273 275 275 272 273 273 275 277 275 276 276 276 278 279 279 279 280 282 284 282 282 281 280 281 281 281 278 276 276 277 278 274 271 272 276 275 271 267 266 261 264 267 267 274 272 275 277 278 279 280 280 280 281 282 282 284 284 283 283 283 283 283 284 284 285 285 285 284 284 285 285 285 283 283 283 283 282 282 282 281 282 283 282
283 282 278 275 273 275 277 274 273 275 278 279 277 278 280 281 279 281 283 280 283 282 282 281 281 281 279 279 280 280 278 277 276 278 274 273 273 276 277 272 270 266 264 265 264 264 267 274 273 273 277 279 279 280 280 281 282 281 284 283 282 282 283 282 282 283 283 284 284 284 283 284 284 286 286 286 286 284 284 284 284 283 282 283 282 281 281
280 280 279 274 272 275 276 275 276 279 280 280 280 280 283 282 283 283 284 281 283 282 283 283 283 279 280 280 277 277 278 277 276 277 277 276 276 271 267 267 265 265 264 265 265 267 271 273 276 277 279 279 280 281 282 282 282 282 283 283 282 282 282 282 282 282 282 284 283 283 283 283 285 285 285 286 286 286 287 286 284 283 282 282 282 281 282
281 278 278 274 276 276 276 276 279 280 279 279 280 281 283 284 282 282 283 280 283 283 280 279 277 276 277 279 277 276 277 277 271 274 276 272 268 268 267 266 264 267 269 267 269 271 273 278 279 279 279 280 280 282 281 281 282 284 284 284 285 284 283 282 282 282 281 282 282 283 283 284 283 284 284 283 284 285 286 286 285 283 283 283 283 282 281
281 279 280 278 278 278 278 278 279 278 279 280 280 280 281 282 282 284 282 282 282 280 282 283 280 279 279 278 275 274 274 276 276 276 270 269 268 269 267 265 265 267 271 273 276 279 279 278 280 280 280 280 280 281 281 282 281 281 282 282 282 282 283 283 283 283 282 281 282 283 284 283 284 283 285 286 286 284 285 284 284 284 283 282 283 283 282
281 281 279 276 277 278 278 275 277 276 276 279 279 281 280 282 281 284 283 281 281 279 277 278 279 277 275 273 271 270 275 277 274 272 271 271 274 270 267 268 270 271 275 277 278 281 282 282 282 283 283 282 281 281 280 282 282 282 282 282 282 283 283 283 283 282 282 282 282 283 283 284 285 286 286 285 286 286 286 284 284 284 283 282 283 284 283
278 277 281 280 281 279 280 280 279 280 280 280 281 282 281 283 282 283 283 282 280 280 278 278 278 275 272 272 272 275 278 274 272 272 271 274 274 271 269 271 275 277 280 281 283 282 282 281 283 282 281 281 281 280 281 282 282 282 282 283 283 283 283 283 282 282 282 282 282 283 284 284 283 283 284 285 285 285 284 284 283 283 284 283 283 284 285
Wind_Speed
17 18 18 19 20 20 20 20 19 16 17 5 4 3 1 3 1 3 2 0 3 4 2 1 2 1 2 3 3 2 2 2 2 2 1 2 2 1 1 2 1 3 1 1 2 1 0 1 2 1 2 2 2 5 6 4 3 3 1 0 0 4 2 2 3 5 4 4 3 6 3 2 6 4 2 3 1 1 4 3 3 5 2 1 1 2 2
17 18 18 19 21 21 21 20 20 18 12 5 4 2 2 1 0 2 1 2 4 3 1 1 3 2 4 1 3 4 2 1 2 1 2 1 3 0 1 4 1 3 1 1 1 1 1 0 2 2 2 2 5 5 5 2 1 2 3 4 3 1 2 3 2 1 4 5 7 3 5 5 3 3 1 1 0 3 1 3 1 3 2 3 7 4 2
17 18 19 20 22 21 20 21 20 18 13 8 3 1 1 1 0 0 4 5 3 1 3 3 1 2 2 2 5 6 3 2 4 2 3 1 1 2 2 3 3 2 1 2 1 2 1 1 4 2 1 1 3 8 8 3 4 1 4 5 1 3 2 2 2 4 4 2 2 3 2 1 2 0 3 4 6 4 1 0 1 3 1 3 3 2 3
17 18 19 21 22 21 20 21 18 17 15 5 4 3 1 0 3 4 4 6 4 3 1 2 2 0 1 2 2 0 3 4 3 1 3 1 2 2 3 4 0 1 3 3 5 5 5 5 2 4 4 3 4 5 7 10 4 5 10 5 5 3 2 3 2 5 3 3 5 3 1 2 2 3 2 3 3 3 6 4 5 1 1 3 2 5 9
17 18 20 21 21 21 22 22 19 18 14 11 5 1 1 1 3 1 1 3 5 0 3 1 2 1 2 1 1 3 3 3 4 3 1 3 3 2 1 3 2 2 1 0 2 3 2 5 4 6 3 2 1 6 7 6 9 5 3 6 4 4 4 4 3 4 0 3 3 4 1 3 2 3 5 6 2 3 6 4 1 5 5 2 2 3 9
17 19 21 21 21 21 22 22 19 18 10 14 1 2 2 2 1 1 1 3 1 1 2 0 1 0 1 0 0 2 3 4 3 4 1 4 3 1 3 6 4 1 1 1 2 5 3 4 3 5 3 2 6 3 7 5 6 5 2 4 4 3 3 2 1 3 4 7 7 4 6 5 4 6 6 7 8 3 5 1 1 5 3 5 5 4 5
18 19 20 21 21 22 23 22 20 17 6 9 0 2 1 2 1 0 0 1 2 3 1 2 1 0 1 1 1 2 3 4 1 0 4 3 4 3 1 6 7 6 4 2 1 1 1 2 2 2 5 3 3 3 3 2 6 4 3 4 2 5 3 1 1 2 9 10 9 8 5 4 7 8 9 7 7 8 11 7 2 2 5 6 10 10 6
17 18 20 21 21 22 24 24 21 19 5 3 2 3 1 1 1 0 4 4 2 0 1 1 2 1 3 0 2 0 1 3 4 3 1 2 3 2 2 5 5 3 5 2 3 0 1 1 1 2 5 5 4 1 1 3 3 3 2 0 1 4 1 1 1 4 5 7 6 8 8 3 7 7 10 10 8 5 6 9 6 11 10 9 10 10 5
18 18 19 20 21 22 23 23 23 21 7 1 2 1 2 1 1 1 3 2 3 2 2 1 1 2 4 3 2 1 1 1 1 3 2 1 0 3 3 6 5 1 2 2 2 3 2 3 3 4 1 2 2 1 3 1 4 3 2 2 1 4 1 2 2 4 1 5 6 5 8 5 7 7 13 12 9 3 2 2 1 3 8 6 10 5 2
17 18 19 20 20 21 21 22 22 22 14 4 1 2 2 1 1 2 2 2 4 2 1 1 2 1 1 1 2 0 3 3 1 2 4 5 3 1 3 4 1 4 3 3 3 3 4 4 4 4 9 9 7 5 7 3 4 1 1 0 2 2 5 3 3 5 1 2 7 6 6 4 4 6 8 8 4 3 1 3 5 1 9 13 9 5 4
17 18 18 19 20 21 21 21 21 19 10 4 3 1 1 1 0 2 5 5 3 3 1 3 3 1 2 3 2 1 2 4 1 2 1 1 2 1 2 2 3 3 2 3 3 3 5 3 3 6 7 5 3 2 4 7 3 3 5 2 1 2 6 3 1 4 2 4 3 2 3 2 3 2 3 2 3 3 4 4 5 8 5 2 5 8 8
17 17 18 19 20 20 20 19 19 17 9 0 2 1 3 2 4 3 4 5 0 3 4 1 0 2 3 4 1 2 4 5 4 1 3 1 3 3 2 1 2 4 4 4 5 5 7 4 5 1 1 1 3 8 11 11 8 4 1 5 4 5 4 2 2 4 2 2 3 3 0 2 0 2 4 3 7 11 11 9 10 8 9 14 13 11 11
16 16 17 19 19 20 20 19 18 16 13 1 2 1 2 1 1 3 6 7 2 2 1 1 2 1 1 4 5 4 5 4 3 4 3 1 3 3 1 1 1 4 6 10 7 3 3 5 5 3 2 0 2 13 14 12 10 8 7 4 6 4 6 2 4 3 2 2 2 2 2 1 3 3 4 2 1 1 2 9 9 8 5 9 13 11 10
16 16 17 18 19 20 20 19 18 17 15 6 1 2 2 0 1 2 1 5 1 2 1 2 3 5 5 5 2 5 3 7 8 2 3 1 1 4 3 2 4 7 7 4 1 2 3 3 5 1 1 4 4 6 4 3 8 10 10 7 3 7 4 4 2 0 3 2 2 1 1 1 3 3 4 4 2 4 3 2 3 4 1 4 13 12 11
16 16 17 18 19 19 20 20 20 20 17 13 1 2 3 1 1 3 2 6 4 0 1 1 3 3 1 2 3 5 3 3 7 5 3 2 1 1 3 5 7 7 4 1 1 3 3 2 3 3 1 3 1 1 2 1 3 4 5 4 4 1 3 3 4 1 3 5 4 2 0 3 1 1 4 0 2 2 2 1 2 2 5 4 12 14 11
15 16 17 18 19 19 20 19 19 19 18 15 2 1 2 2 1 5 3 5 6 3 4 2 3 2 0 1 2 2 2 2 3 3 6 4 2 8 6 5 7 3 2 4 1 3 2 5 2 3 1 1 1 2 1 2 2 3 4 6 9 8 7 4 5 3 3 3 4 2 4 0 1 4 5 4 1 2 1 2 1 2 5 3 7 13 11
15 16 17 18 18 20 19 19 19 18 16 14 3 2 7 5 1 1 4 3 6 2 4 1 1 2 4 3 5 3 2 2 2 3 4 5 5 4 10 9 4 3 5 3 5 4 4 5 0 3 0 0 1 2 0 2 1 4 9 7 10 10 6 5 6 3 2 3 3 2 0 1 1 5 7 9 4 0 2 2 4 5 7 5 7 13 12
15 16 17 18 19 19 20 18 19 18 17 15 3 3 3 4 2 3 5 5 5 2 2 2 2 4 4 1 0 2 1 2 3 1 1 4 3 4 5 6 10 5 3 4 2 6 4 3 3 2 3 1 1 2 1 0 2 1 2 2 3 5 4 6 3 2 5 5 1 3 1 1 3 6 11 10 5 1 2 4 2 4 8 6 4 8 8
15 16 17 17 18 19 19 18 18 18 18 18 4 1 3 4 5 6 8 4 4 3 5 3 1 2 1 2 1 0 0 0 0 1 5 5 1 3 3 4 1 5 8 2 5 4 2 1 0 1 3 4 3 1 1 4 1 1 2 4 6 4 1 1 3 6 3 1 4 1 0 0 4 8 8 7 1 2 3 1 1 8 8 5 6 8 5
15 16 17 17 17 18 19 18 18 18 18 18 6 3 1 3 5 3 3 4 2 3 1 1 1 1 0 3 3 5 3 4 0 2 0 1 5 5 4 5 5 3 6 3 5 1 4 2 1 0 4 2 2 3 4 1 1 3 1 0 3 2 2 1 2 1 1 3 3 1 1 1 7 13 5 2 1 1 1 1 4 5 10 10 7 6 4
15 15 16 16 17 18 18 18 18 18 18 19 8 1 3 3 4 4 2 6 6 4 3 3 0 0 1 1 1 4 4 3 1 2 1 5 3 2 3 1 4 2 2 2 3 2 1 2 2 2 1 1 2 3 2 1 3 3 3 2 3 1 3 1 1 1 0 2 2 1 3 6 9 4 0 2 0 1 0 3 5 3 7 9 7 3 4
14 15 16 16 17 18 18 18 18 18 18 18 11 2 3 4 2 4 1 4 3 2 3 0 1 1 2 2 2 3 2 1 1 3 0 3 4 4 3 1 1 0 0 1 3 1 3 1 0 4 3 3 4 4 1 4 2 5 3 3 4 7 2 1 4 3 2 1 2 1 1 5 5 2 2 2 3 4 3 7 6 6 3 3 6 7 7
14 14 15 16 17 17 17 18 18 17 17 18 10 4 1 5 7 3 1 4 2 1 4 3 2 2 2 1 1 4 3 2 3 2 2 2 2 2 1 2 3 0 0 1 1 4 1 4 2 3 3 3 3 3 6 4 2 3 4 3 6 1 4 3 5 3 4 5 3 1 2 2 4 5 4 5 6 6 6 8 9 5 5 5 8 7 8
13 14 14 15 16 16 17 17 17 17 17 16 8 1 2 2 4 5 5 5 3 3 3 5 5 2 1 3 1 2 2 2 1 0 1 3 2 3 2 2 1 2 2 2 2 1 1 3 1 2 5 1 3 4 3 5 2 0 2 1 2 2 0 3 5 1 3 2 2 4 3 3 5 6 7 7 7 6 6 9 8 8 9 10 9 9 8
13 13 14 15 15 16 16 16 16 16 15 16 11 2 1 3 2 3 2 1 1 2 3 2 1 3 3 4 1 2 1 0 1 3 4 4 4 3 1 1 0 2 1 1 1 6 4 4 2 3 6 1 2 2 1 6 1 1 3 1 2 2 2 7 3 3 3 2 1 1 2 2 4 4 6 8 8 9 8 8 9 10 10 10 9 9 10
12 13 14 14 15 15 16 15 16 15 15 15 9 3 3 1 4 1 5 4 3 4 3 0 2 4 3 4 3 2 2 2 6 8 6 2 1 1 2 1 3 3 3 2 5 6 3 4 3 2 5 1 1 3 3 1 3 1 6 1 1 2 3 1 0 4 2 3 2 1 4 6 5 4 5 4 5 8 9 8 8 8 10 9 9 7 5
12 13 13 13 14 15 15 15 15 15 14 14 6 1 0 1 3 6 2 1 3 2 3 2 2 6 4 3 1 3 3 4 6 8 7 8 6 5 7 4 4 5 6 5 4 5 4 3 5 4 2 1 2 2 2 3 3 3 3 3 3 3 4 0 5 5 1 4 3 3 3 1 0 1 3 4 4 8 9 9 8 7 8 8 10 8 6
12 12 12 13 14 14 14 15 14 14 14 11 4 1 1 3 4 3 2 2 2 3 4 1 1 2 2 0 3 3 5 5 6 6 6 7 9 9 8 5 5 5 4 4 5 6 4 7 3 1 1 0 4 3 2 1 3 5 6 4 1 2 4 4 3 4 3 6 5 3 2 4 3 3 1 3 4 8 8 7 7 5 5 7 10 9 8
11 12 12 13 13 14 14 14 14 13 13 8 2 2 1 0 1 3 3 1 5 5 4 1 2 3 2 2 4 4 4 6 6 5 5 7 7 7 7 6 4 2 3 5 3 3 4 1 1 2 1 1 5 1 4 4 3 3 2 5 3 2 2 1 3 4 1 1 6 4 3 6 3 3 1 1 1 6 6 5 5 7 6 6 8 9 10
11 12 13 13 13 14 14 14 13 11 10 4 2 3 2 1 1 3 5 3 2 3 3 1 3 0 3 2 3 3 2 4 5 7 8 6 7 6 6 5 5 3 4 3 3 4 0 2 1 1 2 1 3 1 3 1 3 0 3 3 2 2 4 3 3 2 2 2 3 1 1 4 3 2 2 1 2 4 6 4 5 6 5 7 9 5 6
11 12 12 13 14 14 14 14 12 11 7 2 2 1 1 1 1 1 5 3 1 3 3 3 2 1 2 0 0 5 4 4 4 4 4 3 2 3 2 3 3 3 5 5 4 1 2 4 1 2 2 3 4 2 3 3 2 1 2 3 2 5 5 4 4 5 8 8 7 6 6 4 3 4 3 1 1 3 4 2 2 5 5 6 7 7 5
11 12 13 14 14 14 14 13 11 7 3 2 2 1 2 2 2 3 4 3 1 3 2 3 1 2 1 3 2 1 1 1 2 3 3 3 3 4 5 6 2 2 3 2 1 2 3 1 2 2 3 3 6 3 3 4 4 2 1 0 1 2 4 5 6 5 5 8 11 10 6 3 3 2 3 4 3 2 5 5 4 5 6 5 4 4 4
12 13 14 14 14 14 14 12 10 4 1 4 7 6 8 9 9 6 4 1 2 1 2 4 2 1 1 1 3 3 3 2 5 5 2 2 2 2 3 4 3 4 3 5 4 2 1 1 1 6 2 2 3 2 3 2 2 2 2 2 1 1 3 3 5 5 5 5 6 7 4 4 5 6 2 3 2 4 6 6 4 6 8 7 6 4 4
13 14 15 15 14 14 12 11 8 5 3 2 2 1 1 2 1 2 1 2 2 0 2 2 1 1 0 3 4 3 3 1 1 2 2 3 0 3 1 3 4 3 5 4 1 2 2 4 4 0 4 5 2 4 2 1 1 1 1 2 1 3 2 3 3 4 4 4 4 7 9 7 3 3 4 4 3 2 3 5 7 7 6 7 6 6 5
15 15 15 15 13 12 10 5 2 1 1 0 1 4 1 2 2 1 1 1 1 1 2 1 2 2 1 3 1 2 1 3 2 1 3 2 2 1 0 3 4 5 2 2 4 2 2 1 1 5 1 4 4 2 1 2 0 1 1 1 1 3 4 3 1 2 3 2 1 4 3 5 6 4 5 4 3 4 6 4 5 9 6 5 5 4 4
16 16 15 13 11 5 1 1 1 1 2 0 1 2 1 1 2 0 1 1 1 2 2 0 1 2 3 3 1 1 1 2 1 1 0 0 3 3 4 2 4 1 1 4 1 3 2 1 2 1 2 5 0 1 0 2 2 1 3 2 3 3 3 4 4 2 3 3 5 2 4 4 7 7 5 4 4 4 5 6 3 5 8 6 4 4 2
16 15 11 7 2 1 1 1 2 0 1 2 2 1 2 1 1 2 1 1 1 2 3 2 4 1 3 1 0 2 2 2 3 3 5 4 0 2 3 3 2 2 3 4 4 4 2 1 7 3 3 2 1 3 2 3 3 4 1 2 2 1 2 1 4 6 5 4 6 2 2 2 1 2 4 4 5 3 4 5 7 7 7 7 6 5 5
13 5 1 1 1 2 1 1 0 1 1 4 3 2 3 5 0 2 2 2 1 2 3 3 2 0 0 3 1 2 2 1 2 1 1 0 1 1 0 2 0 1 2 1 1 1 2 6 2 3 1 2 2 2 3 2 3 3 2 3 2 1 1 3 3 6 4 2 2 3 3 1 2 3 5 5 4 5 6 5 5 4 5 6 7 6 5
3 1 1 2 2 1 1 0 3 5 1 1 3 1 1 1 1 1 0 1 1 2 2 4 0 0 4 4 0 2 2 2 3 3 2 2 1 0 1 2 2 3 1 2 2 3 3 3 2 3 1 3 3 1 3 2 2 2 1 1 2 3 3 1 2 4 5 7 6 5 4 4 3 5 5 5 3 1 2 2 4 4 5 6 6 5 6
2 1 0 1 1 1 4 5 7 2 2 1 1 2 0 1 2 0 1 2 2 1 1 2 0 1 0 5 4 2 1 2 1 1 1 1 0 2 1 1 1 3 0 1 1 2 5 2 1 2 0 1 0 2 2 1 3 4 4 4 3 2 1 1 1 2 3 1 1 1 3 4 4 5 5 5 4 4 3 3 3 4 5 6 6 7 7
2 1 1 1 1 2 3 5 4 2 1 1 1 1 1 1 1 0 1 1 1 1 0 2 1 2 1 2 2 2 3 2 1 3 3 2 1 2 3 1 1 2 1 1 1 2 2 3 2 2 4 2 1 1 2 1 4 3 2 2 3 3 3 3 4 1 2 4 3 3 2 2 2 2 6 6 7 6 6 5 6 6 5 5 6 7 7
1 1 1 1 1 2 2 1 2 1 1 0 2 0 0 1 0 2 1 2 1 1 2 2 1 2 1 0 1 2 1 0 2 1 1 1 1 1 1 0 2 2 0 2 1 2 3 1 0 0 2 2 3 2 2 1 1 2 4 4 4 4 3 3 3 4 3 3 6 5 4 4 3 2 2 4 4 4 4 4 4 4 7 7 6 5 4
4 2 3 1 1 1 1 1 2 1 1 1 2 1 1 1 1 2 0 1 1 2 1 0 1 0 1 2 1 0 1 0 0 1 2 0 1 2 2 1 1 2 0 1 2 2 2 1 1 4 4 2 1 1 2 1 0 0 0 1 2 2 2 3 2 1 2 3 3 3 3 3 4 4 1 2 3 1 2 4 5 6 5 4 5 5 5
2 1 1 2 1 1 1 1 0 1 1 0 2 2 1 1 0 1 1 1 0 1 1 5 2 4 2 2 2 1 1 2 3 2 1 0 1 1 1 0 0 2 1 2 2 3 1 2 4 5 4 2 1 2 3 2 2 1 3 3 3 2 3 4 4 4 2 3 4 4 5 4 4 3 2 2 3 5 5 4 4 5 4 4 5 5 3
1 2 2 1 1 1 1 1 2 2 2 1 1 1 3 5 3 1 3 2 1 3 1 3 4 5 2 1 2 1 1 1 1 2 0 0 2 1 1 0 1 2 2 0 1 1 1 0 1 2 1 2 3 3 2 1 2 3 1 0 2 2 1 3 2 2 1 2 3 3 3 3 3 3 3 1 3 3 4 5 4 4 4 5 4 4 4
0 2 2 3 1 2 1 0 0 0 2 2 2 6 4 3 5 3 2 2 4 4 7 4 5 5 3 1 3 1 0 2 2 0 0 2 2 0 0 0 2 2 1 2 1 1 3 4 3 3 3 4 4 4 3 3 1 1 1 1 0 0 1 1 2 2 2 2 1 1 1 0 2 3 2 3 1 0 1 3 2 2 4 3 4 5 4
1 0 2 1 2 1 1 1 2 2 2 3 4 6 6 6 5 3 2 2 6 5 5 1 4 3 4 1 1 1 2 1 1 1 1 1 0 0 2 2 0 0 2 0 1 2 2 4 4 3 3 3 2 2 2 2 1 1 0 0 1 1 1 2 2 3 3 2 1 2 2 2 1 2 2 2 3 2 0 1 2 2 3 6 5 3 4
1 1 1 1 2 1 1 2 1 0 1 1 2 3 2 2 5 5 2 1 5 2 5 4 3 2 3 2 3 2 0 1 2 1 1 1 1 2 1 1 0 1 1 3 3 4 3 3 4 4 4 3 3 3 2 3 3 2 0 1 2 1 1 2 3 4 2 3 4 4 4 4 4 4 3 3 2 2 0 2 2 1 4 3 2 4 4
1 1 1 2 1 2 1 1 3 4 3 4 3 4 5 8 6 4 1 1 4 4 2 3 2 3 1 1 1 1 1 1 2 1 1 2 1 2 1 1 0 0 2 3 2 3 4 5 5 4 3 2 3 3 2 3 1 0 1 1 1 2 2 3 3 3 2 3 4 4 4 5 3 3 3 2 3 3 2 1 1 1 2 2 3 3 3
0 1 1 1 1 1 0 1 6 4 2 2 2 3 2 7 6 1 1 2 1 3 2 3 2 4 0 1 1 2 0 0 1 0 2 0 1 1 2 1 2 3 1 2 2 2 3 3 3 2 3 4 4 3 2 2 3 3 3 3 3 2 3 3 2 2 1 2 3 4 4 4 4 4 5 7 6 2 2 2 1 1 2 3 3 2 2
0 0 1 2 3 1 1 4 8 5 3 3 4 4 3 5 4 2 0 3 2 5 4 2 0 1 1 2 2 1 1 0 2 1 2 1 1 2 2 2 2 4 4 4 4 5 6 4 4 4 3 3 3 3 3 3 3 3 3 3 3 2 2 1 1 3 3 3 3 3 2 5 6 6 4 2 1 2 3 3 1 0 2 3 4 4 4
1 1 0 1 0 2 2 3 3 3 4 5 4 2 2 3 2 1 0 6 4 6 1 0 2 1 2 1 1 1 0 2 0 1 1 1 1 2 2 5 4 6 6 4 3 2 2 3 4 4 4 3 3 3 3 3 3 3 3 3 3 2 3 2 2 2 2 3 2 3 4 5 4 2 1 1 0 0 3 5 4 2 2 2 4 4 3
Wind_Direction
339 337 335 332 331 332 332 332 333 336 336 354 0 322 11 59 134 265 137 179 86 68 42 303 34 277 234 298 282 272 283 238 288 324 298 336 226 297 249 253 327 273 206 290 231 200 261 224 229 217 160 230 228 301 119 104 137 104 258 18 285 85 62 31 302 311 302 323 335 325 303 335 56 17 84 73 10 245 178 167 183 139 188 93 17 67 252
338 338 336 331 332 331 330 332 333 334 337 328 315 36 102 136 131 22 45 83 115 80 230 304 293 271 318 20 267 269 247 300 321 280 306 245 337 191 268 319 212 260 303 262 258 293 86 40 27 18 0 39 318 25 53 46 57 98 228 137 255 101 304 115 51 9 338 342 336 349 344 43 91 120 51 31 243 87 177 112 71 101 222 171 123 207 236
339 339 336 333 333 331 329 332 332 329 325 300 176 136 160 97 316 280 306 3 71 156 182 154 198 282 300 337 335 342 333 238 259 236 259 288 226 351 280 220 288 305 308 309 291 340 98 224 332 122 51 29 354 12 43 54 94 92 188 121 88 97 204 102 132 157 164 218 253 261 270 272 310 290 91 41 56 18 49 303 34 136 317 94 123 183 254
342 341 338 336 334 332 332 336 331 326 325 165 147 192 58 107 122 309 346 9 23 67 62 118 140 128 329 21 289 290 306 311 291 228 271 225 308 207 264 301 37 303 21 5 6 347 354 78 322 28 8 338 18 339 46 54 59 46 64 42 79 129 75 74 140 148 177 213 229 249 125 35 61 318 50 113 99 69 93 114 70 53 184 56 263 162 146
344 343 340 338 335 332 337 340 336 336 338 178 152 121 124 149 95 157 166 333 36 37 353 65 69 258 148 60 344 336 318 268 313 324 34 339 339 305 45 330 37 319 39 300 2 346 336 1 65 16 4 317 4 329 39 39 24 19 38 12 76 65 68 5 83 88 162 272 249 284 177 124 40 26 346 335 58 87 74 85 163 162 84 340 318 141 133
346 344 341 340 336 335 341 343 343 348 357 165 180 60 25 72 241 117 190 128 277 43 325 73 74 328 118 259 90 309 339 349 10 323 7 307 325 61 331 10 29 327 229 99 63 334 344 25 30 328 1 348 345 32 12 56 342 38 40 15 99 117 101 313 101 359 30 15 15 17 78 57 83 50 26 9 324 59 96 116 172 128 144 188 161 115 103
345 343 343 342 339 338 344 346 349 356 355 160 83 100 305 124 186 137 304 92 251 159 167 122 111 178 160 233 333 327 9 349 289 271 315 358 348 38 61 335 338 342 351 108 126 22 77 6 327 42 343 17 336 29 343 352 17 47 60 24 100 91 62 329 11 66 27 10 27 21 63 94 52 38 28 19 45 79 99 92 107 113 123 133 119 96 67
345 345 343 344 340 342 345 349 350 357 39 157 46 54 90 357 85 308 1 90 107 283 36 77 52 42 329 18 293 249 329 350 339 339 55 348 313 338 81 325 334 345 5 63 98 103 154 149 278 331 21 329 36 354 154 290 330 44 76 105 322 101 278 114 34 58 8 1 32 38 13 16 79 24 27 27 22 61 92 109 89 83 66 90 106 98 74
347 345 344 343 341 344 347 352 353 353 17 113 83 39 90 205 165 151 111 76 324 353 32 25 87 43 341 50 293 340 293 296 210 279 222 163 280 324 319 295 318 330 22 52 150 201 184 184 197 250 283 285 262 73 278 106 327 5 0 32 337 67 144 45 85 86 0 353 9 352 352 342 69 28 9 3 359 53 335 55 180 133 136 124 112 104 124
346 346 346 344 343 345 347 353 357 357 357 121 96 54 302 54 297 79 104 85 314 49 354 17 55 13 229 177 270 279 315 338 129 343 270 214 191 223 273 282 308 307 11 331 314 266 211 218 240 199 230 231 262 247 258 250 228 226 118 297 73 95 129 109 91 78 331 6 37 4 333 17 11 356 344 325 291 247 27 28 26 13 146 134 165 174 81
346 347 346 345 345 346 347 352 358 3 11 57 81 36 357 74 292 31 46 91 344 47 72 351 97 289 341 291 274 326 303 346 4 165 284 4 301 214 204 304 350 270 225 255 258 267 267 244 144 212 202 210 249 42 82 67 75 157 150 69 24 65 117 125 128 108 143 357 49 17 49 109 242 345 334 272 266 306 58 25 348 353 20 13 82 113 104
347 348 347 347 346 347 348 348 353 0 15 213 134 218 224 117 83 92 89 94 285 355 89 87 121 300 32 322 51 358 339 330 313 277 261 270 260 342 29 15 76 333 246 271 316 310 293 89 118 42 23 189 99 71 58 57 34 27 140 128 114 91 78 100 133 95 139 148 71 43 286 247 10 306 337 7 64 80 90 70 46 43 86 102 94 99 97
349 350 350 349 347 347 347 346 350 354 5 30 135 329 281 198 124 119 116 106 82 345 35 35 324 252 281 20 14 329 289 267 281 274 219 242 307 358 326 316 275 253 316 315 332 359 54 94 84 128 112 84 30 58 45 39 32 27 35 59 117 129 111 158 47 98 73 73 79 143 237 252 313 285 314 343 95 54 40 56 42 33 61 109 106 106 105
351 352 352 351 349 347 346 346 347 351 359 14 156 242 294 18 102 81 102 97 11 272 217 326 332 2 12 16 335 300 309 356 340 309 21 290 276 295 294 220 273 281 286 286 33 85 55 32 95 15 344 1 2 31 324 30 44 38 28 10 74 126 96 96 93 1 146 140 81 86 354 4 15 5 357 23 0 353 16 85 9 47 13 130 122 119 118
352 353 354 352 351 348 349 347 347 350 353 3 182 298 340 346 125 128 160 90 137 243 84 77 300 282 330 344 9 359 5 330 11 333 293 295 310 248 250 283 303 298 289 173 10 37 126 92 94 115 346 47 94 227 336 52 312 45 51 41 60 84 140 200 106 309 108 136 96 103 70 192 228 241 269 210 215 214 234 107 30 49 83 134 129 129 137
352 355 354 353 352 350 349 348 348 349 352 355 90 259 39 355 126 89 113 134 123 32 310 237 218 228 162 330 317 44 324 323 318 305 336 331 281 323 306 308 305 328 7 73 85 93 75 98 233 83 133 175 228 64 325 345 4 309 33 30 49 33 65 98 113 139 71 58 119 167 168 253 169 280 310 312 272 213 183 72 14 206 153 155 145 134 150
354 354 354 353 353 351 350 349 348 350 352 357 330 351 35 358 61 124 98 52 81 154 238 273 118 103 72 343 6 6 0 5 317 10 335 327 300 285 295 319 291 33 16 85 18 68 38 64 121 124 54 126 81 172 90 72 32 332 334 6 32 38 6 14 52 45 52 137 94 199 189 179 0 326 319 316 324 232 71 52 265 176 164 157 160 147 153
353 354 353 353 352 351 351 350 350 350 353 356 38 64 6 352 62 103 55 94 102 35 301 167 87 47 44 190 251 279 65 9 23 69 180 276 319 326 326 343 345 325 69 85 9 70 60 72 65 84 82 339 143 61 77 133 54 346 347 349 13 2 359 40 79 92 40 63 68 30 350 357 355 328 316 309 288 139 83 187 241 165 149 159 164 148 151
352 352 353 353 352 352 352 351 351 352 354 355 2 38 8 4 13 76 116 78 81 114 262 285 136 144 191 74 139 208 213 216 187 83 319 359 315 288 261 265 6 348 0 86 53 65 85 345 40 103 87 342 29 93 297 41 331 345 59 17 10 10 50 351 57 31 48 33 83 207 243 247 325 319 304 279 38 107 222 247 149 143 139 152 156 149 159
350 352 352 352 352 353 353 353 353 353 357 0 19 118 249 331 3 59 106 117 114 123 274 325 41 71 336 98 52 30 344 19 35 116 137 248 290 355 36 5 332 47 346 59 46 325 88 30 303 54 39 54 40 149 61 55 49 44 57 261 103 314 74 348 37 302 46 35 78 40 15 263 13 323 324 12 90 235 264 65 66 136 135 145 163 164 175
349 351 351 351 352 354 354 354 355 355 357 358 15 76 7 328 13 21 90 129 114 80 333 291 94 225 144 114 176 145 126 68 0 22 252 217 254 78 81 217 276 2 358 52 81 348 77 8 353 73 213 101 304 50 141 174 21 29 75 96 98 346 86 1 25 331 126 47 69 151 251 289 319 355 85 326 279 258 270 110 84 86 135 149 154 124 119
350 350 351 351 353 354 354 355 354 355 356 359 3 78 50 313 6 352 72 98 104 128 174 179 300 240 231 212 190 174 149 165 229 184 236 359 347 89 159 154 269 162 324 107 34 15 8 167 64 53 29 357 26 74 152 71 49 306 344 58 40 331 88 180 135 301 100 116 187 260 275 288 310 350 9 25 16 37 69 87 86 95 53 99 105 109 110
349 349 350 350 352 352 353 353 353 354 356 359 13 76 98 319 340 353 82 62 355 0 358 9 5 350 352 356 230 215 245 161 107 62 126 108 353 2 71 29 333 248 19 92 128 125 167 103 90 149 91 48 116 75 37 98 132 356 53 346 137 176 111 98 79 82 92 66 70 26 343 332 12 24 23 45 49 34 59 82 84 56 69 80 103 103 110
345 349 348 349 349 350 351 351 353 352 352 355 6 45 323 278 303 359 24 64 107 113 350 4 66 0 268 53 350 351 16 0 10 106 164 131 102 320 320 259 207 30 19 314 175 109 193 100 152 117 89 290 88 54 105 43 34 154 69 3 338 290 43 63 96 180 44 9 357 29 358 355 19 43 44 53 55 50 64 77 75 80 80 81 74 89 92
342 345 347 347 347 346 348 349 350 350 348 351 357 321 215 11 3 28 99 118 358 87 137 318 324 231 246 267 284 37 16 277 32 55 40 68 120 129 152 318 121 85 358 332 33 57 40 83 31 50 88 317 102 44 259 110 3 92 67 310 32 19 83 73 79 64 93 165 144 337 350 353 7 12 55 59 62 68 62 76 88 90 84 83 84 79 77
339 340 342 344 344 344 344 345 346 347 343 346 3 28 65 334 312 66 84 61 95 109 95 341 334 324 332 25 18 269 224 39 35 40 36 20 101 149 150 39 22 25 86 65 63 88 96 54 74 84 94 358 71 111 44 185 147 83 105 61 267 260 31 82 115 83 8 28 17 20 47 30 18 42 50 43 57 77 68 66 75 81 82 74 59 63 89
334 337 337 341 341 341 341 339 344 343 341 341 353 0 116 284 346 35 73 156 91 12 35 106 282 301 3 347 292 332 357 28 27 35 32 25 34 44 65 61 62 8 47 33 38 103 61 84 80 47 69 100 88 97 123 38 54 59 29 313 342 52 49 10 71 75 327 187 204 172 84 215 212 94 80 72 65 85 87 81 69 70 83 86 84 62 53
332 333 335 336 337 338 336 337 339 342 338 340 340 327 206 67 359 4 59 123 108 174 161 206 20 284 301 121 331 356 351 20 49 47 37 24 33 46 58 69 74 54 16 67 25 28 36 63 56 235 107 319 57 24 8 141 62 37 25 344 341 114 186 129 135 156 227 238 206 186 147 137 200 186 172 119 123 109 101 96 100 83 94 113 108 97 70
326 328 331 332 333 333 333 332 337 339 338 344 2 39 5 256 14 16 30 45 103 96 92 192 302 17 101 225 318 358 354 47 40 53 43 25 33 40 60 55 75 129 88 72 100 108 91 113 180 81 44 191 99 33 36 25 47 63 309 309 347 309 154 148 189 165 277 164 151 180 157 158 207 230 193 77 55 112 109 114 114 125 128 114 104 114 113
323 324 327 330 328 329 329 328 331 336 341 6 53 48 39 328 336 46 7 36 99 120 95 94 76 233 282 358 322 331 332 10 24 39 36 25 20 26 20 45 32 49 84 102 122 73 298 110 332 304 325 25 111 157 72 189 79 250 294 316 308 12 57 60 164 137 129 90 105 121 98 84 57 99 74 61 70 110 120 127 129 116 112 121 117 116 121
321 321 324 324 323 324 322 325 326 335 356 50 77 60 51 64 302 297 18 10 69 109 121 99 127 274 26 301 18 352 346 12 25 37 14 22 58 23 313 84 39 62 45 5 42 69 84 26 31 346 330 44 105 90 156 115 84 358 303 305 310 73 76 68 56 99 103 86 80 66 54 61 100 75 31 60 116 104 94 88 81 105 124 113 124 133 130
317 319 318 318 319 319 318 317 322 337 9 69 108 163 178 190 225 305 348 328 35 53 71 71 3 20 297 321 307 282 11 25 33 20 356 20 8 3 22 59 67 23 97 103 167 57 33 225 91 349 42 337 70 93 69 78 106 190 289 278 259 140 122 100 88 77 93 112 96 71 68 42 14 130 198 217 175 156 128 120 102 105 102 101 93 93 120
313 315 315 314 314 316 314 312 313 323 237 246 251 259 253 255 267 284 281 311 50 92 120 84 134 208 112 232 320 342 22 22 13 27 8 336 2 14 29 3 13 35 1 76 4 79 251 92 339 56 322 16 77 87 88 96 176 211 215 247 261 138 106 110 122 123 130 135 121 137 165 157 205 223 163 130 117 137 129 111 123 114 112 112 113 108 102
311 310 310 310 310 311 313 309 310 306 335 12 63 8 323 188 166 180 108 75 99 72 74 109 73 53 243 308 73 295 36 96 305 36 49 323 177 67 332 25 358 76 347 70 281 63 351 63 45 327 341 16 32 74 50 6 324 339 332 316 331 53 65 75 96 139 153 151 139 144 164 179 150 104 99 125 124 76 95 114 123 118 138 142 156 164 162
307 307 306 307 308 308 310 325 28 56 108 321 258 254 250 297 134 170 118 111 87 348 31 7 107 94 25 4 62 274 293 80 25 322 101 323 24 65 19 58 332 69 318 80 47 71 54 349 201 63 318 307 44 35 252 231 338 357 349 1 26 101 70 52 346 343 358 2 106 156 153 126 117 145 182 170 145 141 127 140 158 138 148 175 169 168 171
306 304 303 303 307 313 347 41 58 52 26 23 225 279 304 259 295 46 96 106 128 146 91 248 72 140 139 138 125 289 28 50 323 353 320 316 3 19 85 105 59 324 268 71 85 357 49 315 69 24 297 61 337 198 252 182 173 203 194 195 216 186 190 191 164 64 33 61 38 29 114 153 163 183 183 169 172 186 165 139 157 158 154 162 174 168 175
301 300 304 310 339 57 23 218 274 139 192 201 224 234 352 68 13 62 8 28 358 92 134 148 69 202 154 187 240 276 69 106 353 32 343 35 199 301 37 37 83 319 37 5 14 43 327 23 94 65 25 98 350 299 261 221 165 134 163 221 242 266 109 95 148 134 116 105 106 67 72 117 187 195 162 177 194 196 143 163 162 156 168 175 175 170 182
298 305 17 47 44 53 48 317 323 251 261 356 38 52 356 29 116 333 359 33 281 65 356 66 80 233 24 79 60 260 74 301 38 110 329 233 54 346 10 83 240 60 54 16 352 283 28 34 59 102 36 275 271 309 338 323 307 327 333 345 348 80 110 112 126 99 93 63 45 46 11 28 151 217 182 214 204 190 209 199 190 186 169 169 172 169 161
104 74 44 39 95 149 172 267 292 317 28 51 46 71 335 1 59 22 330 280 18 26 304 89 68 156 88 64 1 292 111 139 42 34 101 288 100 316 36 81 310 71 343 50 292 45 61 348 11 41 52 319 6 346 340 317 336 349 3 12 78 123 142 173 185 152 165 187 181 177 176 209 216 225 216 201 195 252 256 199 176 178 171 171 168 167 173
34 64 120 48 93 232 262 285 328 347 59 93 324 105 90 328 92 299 295 61 5 309 37 49 208 152 164 148 141 19 341 63 80 84 126 317 2 123 256 91 273 87 18 88 273 34 113 122 305 68 270 295 287 308 358 294 73 12 14 19 42 53 102 147 243 233 167 203 254 213 224 218 191 164 170 171 164 167 207 226 221 179 168 174 172 166 180
14 52 37 85 253 295 286 298 334 51 69 39 9 8 68 18 341 188 72 51 111 218 210 146 17 36 14 67 77 116 290 92 149 131 111 92 259 76 50 76 233 79 333 22 287 67 72 71 22 128 210 241 229 281 312 358 68 68 47 42 23 358 6 26 26 18 159 105 76 77 65 50 351 222 165 173 170 180 187 185 189 196 181 161 172 198 203
201 172 198 219 274 285 324 8 64 53 11 76 114 299 252 216 304 14 98 123 219 197 349 82 68 132 104 126 180 120 8 196 114 98 99 76 314 110 189 324 14 104 170 235 114 58 75 94 1 297 259 251 260 267 269 92 41 53 45 35 29 18 24 47 43 27 24 102 126 97 63 54 46 302 204 155 181 201 196 185 202 200 197 203 197 185 174
276 219 118 42 27 348 66 58 318 101 106 12 43 42 340 92 202 146 254 295 299 96 254 166 167 144 330 47 42 64 170 278 103 350 73 148 300 55 79 25 56 71 195 324 67 50 58 131 185 236 257 263 265 243 245 220 221 201 57 26 3 319 5 75 99 59 67 73 55 65 100 71 11 344 284 211 170 253 236 205 196 195 208 209 210 210 194
110 73 34 347 73 292 72 112 290 50 3 51 106 160 223 67 302 31 68 209 31 69 174 129 188 105 137 324 134 345 10 6 54 79 53 305 81 14 48 53 203 245 316 40 44 82 195 220 200 206 231 267 294 236 231 214 199 84 51 19 359 11 57 76 79 81 40 21 65 79 71 65 55 38 48 305 235 199 225 230 220 200 205 184 198 210 193
87 6 36 21 33 277 68 298 330 117 186 241 135 172 150 160 215 154 157 234 98 182 95 85 118 95 106 279 45 6 105 179 306 97 243 64 49 355 106 228 252 29 76 103 4 344 6 128 274 297 265 180 203 221 235 243 189 134 180 1 6 0 57 96 120 138 188 189 181 153 144 158 111 65 21 344 251 248 193 204 210 174 180 176 187 184 197
98 153 92 86 353 311 109 187 40 38 286 149 195 193 158 215 156 172 233 135 105 108 116 139 95 89 58 300 121 189 346 79 54 341 122 68 97 35 251 4 70 69 23 46 68 190 211 229 243 235 225 211 219 232 238 243 280 311 86 78 286 280 234 185 205 202 226 252 324 50 221 179 118 76 33 335 355 166 261 307 316 205 165 151 187 200 195
80 16 91 112 107 264 87 140 232 205 174 202 215 174 159 169 190 168 178 109 118 154 112 129 101 152 125 354 36 0 34 58 96 287 69 52 121 256 28 87 272 89 117 166 241 242 260 253 242 237 226 230 256 272 268 271 277 219 189 218 231 293 274 249 252 242 255 240 194 207 219 217 196 148 142 53 17 14 349 191 199 198 181 207 213 181 168
121 238 91 104 219 180 141 244 199 73 342 137 182 167 132 138 94 62 10 83 150 100 90 81 77 4 32 316 85 140 243 13 82 312 130 161 30 42 13 37 1 250 172 154 224 220 226 241 218 225 234 222 209 203 220 236 237 251 248 11 340 332 294 275 275 260 236 200 202 210 224 221 196 202 204 184 208 246 261 13 331 187 195 233 193 184 190
148 118 146 192 196 149 223 278 79 81 338 10 29 73 110 98 112 149 191 47 87 101 160 114 170 90 74 282 87 47 40 345 90 250 20 35 92 192 140 193 4 41 258 173 206 209 215 212 206 200 239 253 240 223 237 226 221 250 246 233 247 251 247 252 249 257 208 202 215 214 231 233 230 226 227 221 227 251 225 220 283 266 201 198 220 217 197
86 349 22 65 31 1 285 44 77 76 20 24 37 75 67 102 112 143 184 70 45 101 38 51 55 91 211 93 30 14 330 311 136 49 63 31 195 173 73 42 235 180 229 242 220 226 223 207 159 177 238 231 243 228 235 261 239 239 248 234 241 249 257 262 296 313 264 220 203 219 233 236 232 229 219 231 227 228 195 223 177 144 230 198 171 180 205
328 126 228 175 130 192 140 148 156 149 155 177 158 176 141 132 146 143 290 113 78 53 42 113 203 89 43 29 55 60 240 155 53 76 154 195 199 102 155 176 233 213 225 227 201 187 179 174 168 182 212 237 241 242 235 232 239 236 242 240 249 254 294 320 287 305 312 300 293 286 243 232 228 222 240 263 271 254 260 297 313 236 215 209 187 177 188
49 80 163 299 36 142 127 94 67 121 146 165 163 208 118 109 227 220 102 98 64 92 154 243 81 63 66 123 215 194 2 45 64 47 43 283 132 126 209 194 207 207 191 166 213 232 211 197 188 187 191 207 230 234 227 233 238 256 255 251 257 281 303 301 289 269 273 299 286 247 258 261 268 253 195 170 203 293 267 264 276 286 268 235 194 177 171